sat.trackr.live / text

‹ back to catalog

STARLINK-34024

NORAD 64031 · 2025-102K

PAYLOAD ACTIVE UNKNOWN

§ Identity

Operator
Country
US
Launch date
2025-05-16
Launch site
AFWTR
Launch vehicle
Mass (kg)
RCS (m²)

Purposes: comms

External: N2YO · Heavens-Above · Gunter

§ Orbital elements

Epoch: 2026-09-20T22:15:09.627264Z

Period
94.09 min
Inclination
70.0018°
Eccentricity
0.0003262
Mean motion
15.30432122 rev/d
Perigee alt
472.3 km
Apogee alt
476.8 km
Semi-major
6,852.7 km
B*
4.0170e-4
RAAN
339.9264°
Arg perigee
270.0473°
Mean anomaly
90.0328°
Rev number
7,519

§ Raw data

STARLINK-340241 64031U 25102K   26263.92719476  .00011744  00000+0  40170-3 0  99992 64031  70.0018 339.9264 0003262 270.0473  90.0328 15.30432122 75191

JSON: /api/v1/satellites/64031 · /tle

For live sub-satellite position, see the globe view (requires WebGL).

§ Visibility from observer

Set your observer location to see the next 7 days of passes ≥ 10°. The values pass through the URL so the page stays shareable.

No JS? Fill the form by hand. The geolocation button needs JavaScript.